This demonstration page uses our WeatherBlox Daily Observations layout. Learn more.

Left ArrowRight Arrow

Hourly Observations for June 17, 2018

Temp ( °F °C ) Dew Point ( °F °C ) Humidity (%) Winds ( mph kmh ) Pressure ( in mb ) Visibility ( mi km ) Precip ( " mm )
12:53 am 00:53 Clear 81 27.2 66 18.9 61 61 S 14 22 29.74 1007 10 16 0.00 0.00
1:53 am 01:53 Clear 80 26.7 66 18.9 62 62 S 10 17 29.74 1007 10 16 0.00 0.00
2:53 am 02:53 Clear 78 25.6 67 19.4 69 69 S 10 17 29.73 1007 10 16 0.00 0.00
3:53 am 03:53 Clear 77 25 67 19.4 71 71 S 7 11 29.73 1007 10 16 0.00 0.00
4:53 am 04:53 Clear 76 24.4 67 19.4 74 74 SSW 8 13 29.75 1008 10 16 0.00 0.00
5:53 am 05:53 Clear 76 24.4 63 17.2 64 64 SW 8 13 29.77 1008 10 16 0.00 0.00
6:53 am 06:53 Sunny 74 23.3 64 17.8 71 71 SSW 3 6 29.80 1009 10 16 0.00 0.00
7:53 am 07:53 Mostly Sunny 76 24.4 64 17.8 67 67 S 7 11 29.81 1010 10 16 0.00 0.00
8:34 am 08:34 Mostly Cloudy with Heavy Rain 72 22 66 19 83 83 S 9 15 29.80 1009 2 3 0.00 0.00
8:43 am 08:43 Cloudy with Rain 71 21.7 67 19.4 87 87 S 6 9 29.80 1009 3 5 0.09 2.29
8:53 am 08:53 Cloudy with Heavy Rain 71 21.7 68 20 90 90 S 8 13 29.83 1010 2 3 0.16 4.06
9:06 am 09:06 Cloudy with Light Rain 72 22 68 20 88 88 SSE 7 11 29.80 1009 3 5 0.00 0.00
9:53 am 09:53 Partly Cloudy 74 23.3 69 20.6 85 85 SSE 8 13 29.83 1010 10 16 0.08 2.03
10:53 am 10:53 Mostly Sunny 79 26.1 69 20.6 72 72 S 13 20 29.82 1010 10 16 0.00 0.00
11:53 am 11:53 Partly Cloudy 80 26.7 68 20 67 67 S 16 26 29.83 1010 10 16 0.00 0.00
12:53 pm 12:53 Mostly Sunny 85 29.4 69 20.6 59 59 S 15 24 29.81 1010 10 16 0.00 0.00
1:53 pm 13:53 Sunny 88 31.1 68 20 52 52 S 16 26 29.80 1009 10 16 0.00 0.00
2:53 pm 14:53 Sunny 88 31.1 67 19.4 50 50 S 14 22 29.79 1009 10 16 0.00 0.00
3:53 pm 15:53 Mostly Sunny 92 33.3 66 18.9 43 43 SSW 13 20 29.78 1008 10 16 0.00 0.00
4:53 pm 16:53 Partly Cloudy 92 33.3 66 18.9 43 43 S 15 24 29.76 1008 10 16 0.00 0.00
5:53 pm 17:53 Sunny 89 31.7 68 20 50 50 S 22 35 29.77 1008 10 16 0.00 0.00
6:53 pm 18:53 Sunny 84 28.9 68 20 59 59 SSE 15 24 29.78 1009 10 16 0.00 0.00
7:53 pm 19:53 Sunny 83 28.3 69 20.6 63 63 S 10 17 29.80 1009 10 16 0.00 0.00
8:53 pm 20:53 Mostly Sunny 81 27.2 68 20 65 65 S 8 13 29.78 1009 10 16 0.00 0.00
9:53 pm 21:53 Mostly Cloudy 80 26.7 69 20.6 69 69 SSW 13 20 29.82 1010 10 16 0.00 0.03
10:53 pm 22:53 Mostly Cloudy 78 25.6 69 20.6 74 74 S 8 13 29.83 1010 10 16 0.00 0.00
11:53 pm 23:53 Mostly Clear 79 26.1 68 20 69 69 S 10 17 29.83 1010 10 16 0.00 0.00

Powered by AerisWeather